New Bedford, Illinois
Current Conditions -  °F | °C
As of 12:55 AM on Thursday 23 Oct 2014 (Local Time) from KSQI Reporting Station
Clear Clear  
Wind Chill: 34°   Ceiling: Unl
Heat Index: 39°   Visibility: 10mi
Dew Point: 34°   Wind: 7mph
Humidity: 81%   Direction: 140°SE
Pressure: 30.21"   Gusts: NA
Location:  41.51°N, 89.72°W
Report Text: KSQI 230555Z AUTO 14006KT 10SM CLR 04/01 A3021 RMK AO1 10090 20020 401601010 57017
Loading
Personal Weather Stations






























Interactive Weather Map
Tropical Storm Tracking
New forecast layout! Learn more

10-Day Weather Forecast

Advertisements
Track Severe Weather on mobile